sat.trackr.live / text

‹ back to catalog

STARLINK-31495

NORAD 59313 · 2024-056T

PAYLOAD ACTIVE UNKNOWN

§ Identity

Operator
Country
US
Launch date
2024-03-24
Launch site
AFETR
Launch vehicle
Mass (kg)
RCS (m²)

Purposes: comms

External: N2YO · Heavens-Above · Gunter

§ Orbital elements

Epoch: 2026-05-24T23:54:25.606080Z

Period
94.09 min
Inclination
43.0016°
Eccentricity
0.0001198
Mean motion
15.30512587 rev/d
Perigee alt
473.5 km
Apogee alt
475.1 km
Semi-major
6,852.4 km
B*
5.2208e-4
RAAN
152.0410°
Arg perigee
80.8221°
Mean anomaly
279.2767°
Rev number
12,291

§ Raw data

STARLINK-314951 59313U 24056T   26144.99612970  .00015486  00000+0  52208-3 0  99912 59313  43.0016 152.0410 0001198  80.8221 279.2767 15.30512587122912

JSON: /api/v1/satellites/59313 · /tle

For live sub-satellite position, see the globe view (requires WebGL).

§ Visibility from observer

Set your observer location to see the next 7 days of passes ≥ 10°. The values pass through the URL so the page stays shareable.

No JS? Fill the form by hand. The geolocation button needs JavaScript.